Simultaneous Nadir Overpasses (SNOs) Predictions

Prediction of SNOs between METOP-A and NOAA-19 Satellite Orbit:

Table of predicted SNOs for the next 14.0 days since TLE Epoch: 10/5/2018
Index Date (METOP-A) Time (METOP-A) Lat,Lon (METOP-A) SZA (METOP-A ) Date (NOAA-19) Time (NOAA-19) Lat,Lon (NOAA-19) SZA (NOAA-19 ) Distance(km) Time Diff (sec)
1 10/08/2018 13:05:53 -78.96, 173.37 94.84 10/08/2018 13:04:55 -78.96, 173.28 94.85 2.00 58
2 10/08/2018 13:56:34 78.94, -19.44 85.15 10/08/2018 13:55:50 78.94, -19.28 85.16 3.44 44
3 10/08/2018 14:47:15 -78.94, 147.90 94.84 10/08/2018 14:46:55 -78.93, 148.05 94.84 3.40 20
4 10/08/2018 15:37:55 78.95, -44.68 85.20 10/08/2018 15:37:51 78.94, -44.77 85.18 2.52 4
5 10/08/2018 16:28:37 -78.92, 122.42 94.84 10/08/2018 16:28:56 -78.93, 122.56 94.82 3.15 19
6 10/08/2018 17:19:17 78.93, -70.15 85.20 10/08/2018 17:19:52 78.94, -70.26 85.21 2.47 35
7 10/08/2018 18:09:58 -78.93, 97.18 94.79 10/08/2018 18:10:57 -78.92, 97.07 94.79 2.62 59
8 10/08/2018 19:00:39 78.91, -95.63 85.20 10/08/2018 19:01:52 78.90, -95.50 85.21 2.91 73
9 10/19/2018 09:14:45 -79.06,-128.25 90.65 10/19/2018 09:13:32 -79.07,-129.35 90.71 23.11 73
10 10/19/2018 10:05:27 79.00, 38.66 89.29 10/19/2018 10:04:25 78.99, 38.56 89.26 2.41 62
11 10/19/2018 10:56:09 -78.97,-154.22 90.75 10/19/2018 10:55:30 -78.97,-154.06 90.75 3.40 39
12 10/19/2018 11:46:49 78.98, 13.18 89.28 10/19/2018 11:46:26 78.99, 13.07 89.28 2.60 23
13 10/19/2018 12:37:30 -78.99,-179.46 90.70 10/19/2018 12:37:31 -78.97,-179.56 90.72 2.61 1
14 10/19/2018 13:28:11 78.96, -12.30 89.28 10/19/2018 13:28:26 78.96, -12.17 89.29 2.85 15
15 10/19/2018 14:18:52 -78.96, 155.06 90.70 10/19/2018 14:19:32 -78.97, 154.95 90.69 2.52 40
16 10/19/2018 15:09:33 78.94, -37.78 89.28 10/19/2018 15:10:27 78.96, -37.66 89.31 3.17 54
17 10/19/2018 16:00:19 -78.76, 128.39 90.94 10/19/2018 16:01:28 -78.80, 130.72 90.77 50.62 69




NCC Satellite Simultaneous Nadir Overpasses (SNOs) Prediction Service
